GFSSE_con_3kmhel_063.txt.gz
Helicity
38 64 95 141 152 161 134 123 122 124 118 127 124 108 105 121 121 125 132 139 158 150 121 115 110 103 114 125 143 169 168 168 173 178 165 137 134 159 173 187 201 185 170
52 82 94 95 137 170 130 124 124 114 109 118 126 121 113 125 118 117 149 150 133 110 96 95 85 91 93 111 154 172 186 204 225 225 174 125 113 137 148 165 183 183 188
24 66 94 107 110 113 121 122 131 109 96 99 108 130 141 141 137 115 126 117 95 79 77 61 68 79 96 106 116 136 160 179 199 189 158 118 95 102 111 118 123 123 123
60 78 105 119 137 150 130 116 100 102 110 122 110 114 136 117 107 92 85 93 79 82 75 55 63 70 83 86 92 91 100 108 130 145 130 98 72 78 86 92 100 95 94
140 113 109 133 148 164 155 133 112 95 116 123 113 120 119 100 109 100 78 76 73 77 75 55 59 66 90 110 86 65 72 85 109 120 117 106 97 82 87 86 88 82 75
120 132 103 109 136 144 164 143 131 119 125 146 136 141 103 91 104 109 90 65 62 66 64 57 60 52 76 70 55 99 98 64 147 158 127 120 95 82 68 71 66 73 79
83 168 167 111 110 115 119 116 130 110 102 130 143 161 119 108 100 119 89 68 64 76 58 50 46 61 89 135 163 117 100 147 113 114 142 112 73 66 72 66 74 79 74
154 147 157 109 63 67 67 92 133 116 70 101 128 171 160 117 97 114 68 71 88 90 69 45 56 87 106 169 153 177 220 165 107 111 100 76 69 65 66 71 71 64 62
181 152 143 109 85 90 91 139 225 191 307 194 174 182 168 140 108 117 112 120 113 81 77 76 65 111 115 136 168 232 218 132 76 79 89 59 56 56 51 50 44 43 48
118 146 121 76 86 139 178 297 280 250 250 119 86 122 188 78 153 158 164 148 122 93 66 44 115 60 89 121 214 228 138 95 65 98 74 41 43 32 41 39 42 38 39
208 133 43 48 70 162 185 226 273 271 254 207 36 42 110 169 213 204 152 129 99 82 90 86 94 58 91 172 240 201 104 69 46 52 32 34 27 32 37 37 30 25 27
166 84 47 68 142 222 221 217 230 263 255 182 184 28 101 214 208 155 153 109 107 106 76 78 55 65 135 154 127 172 112 88 58 40 18 31 26 25 27 26 21 20 19
143 83 59 91 166 229 198 186 210 168 126 126 118 90 139 199 212 178 162 120 145 97 86 104 82 91 102 92 122 146 117 81 28 27 27 34 23 24 21 19 22 25 25
134 115 82 122 138 151 195 149 104 121 144 150 169 220 207 228 234 255 194 123 121 120 122 78 69 70 58 105 129 113 87 41 21 36 30 30 27 25 21 19 23 21 20
232 177 117 121 146 157 135 147 121 85 118 115 235 221 149 194 218 232 203 200 167 104 73 57 72 46 85 116 98 104 95 61 43 34 36 46 40 24 20 18 14 16 19
227 212 142 98 156 162 127 88 101 102 50 80 125 48 114 203 195 228 185 131 108 56 46 42 70 34 71 102 102 100 118 82 30 40 58 42 34 23 12 13 5 4 1
174 162 156 128 136 168 139 109 92 150 127 222 224 219 220 258 223 204 207 91 70 39 20 27 36 26 72 52 106 112 92 53 15 42 49 24 11 17 17 6 0 -1 -3
196 155 157 157 176 115 119 112 125 108 109 181 229 210 235 250 223 239 195 95 61 12 25 21 11 64 74 68 118 132 94 74 38 20 28 31 22 12 4 18 19 0 -7
209 168 172 155 178 122 123 88 101 121 124 164 216 202 175 155 139 147 152 70 56 13 44 46 45 87 91 78 84 95 110 74 54 42 23 30 23 40 44 20 50 38 26
215 175 171 155 152 115 40 41 108 133 129 186 227 180 151 155 118 124 99 55 31 18 60 100 82 99 91 75 70 62 52 77 53 45 50 54 54 57 54 51 49 31 64
266 202 173 156 179 165 144 73 79 104 259 330 202 181 193 110 127 167 133 85 82 66 93 95 101 101 94 104 115 83 56 40 51 56 106 100 84 78 97 73 100 93 80
278 207 206 173 175 153 112 98 110 143 124 114 219 189 105 190 174 274 257 158 130 135 186 135 147 160 91 119 110 136 101 107 49 32 54 131 138 122 125 118 143 132 134
287 208 201 177 177 161 154 142 163 239 252 203 220 106 98 173 213 295 279 161 146 66 30 96 140 124 102 71 103 154 180 114 93 94 57 82 98 149 181 163 161 167 174
278 229 209 178 188 167 200 154 168 189 202 187 168 96 46 106 318 235 192 74 15 19 121 147 156 165 166 48 85 80 141 105 110 117 129 108 109 106 80 142 212 209 204
326 262 228 195 202 170 181 178 160 144 122 172 127 38 102 132 166 171 226 91 56 107 110 100 114 74 130 47 61 71 90 104 95 112 81 72 92 95 61 126 190 232 237
297 290 238 202 178 175 168 194 193 159 118 92 77 97 46 52 43 167 229 216 139 -98 -103 -29 17 93 134 57 78 105 100 96 82 133 170 129 131 102 89 106 153 203 229

GFSSE_con_3kmhel_069.txt.gz
Helicity
9 24 36 60 116 138 158 214 248 216 182 220 260 255 256 253 226 198 165 144 164 171 170 173 187 173 122 108 107 111 127 133 123 109 114 107 117 119 118 126 122 106 120
56 8 36 69 108 131 143 191 230 242 162 132 203 243 262 252 232 211 195 173 173 172 153 167 181 159 128 137 156 174 169 173 139 114 115 124 122 116 122 141 130 128 128
40 21 25 68 119 148 147 168 215 240 225 166 168 201 219 231 225 205 201 192 169 154 140 144 151 158 149 183 186 188 221 200 163 162 170 180 141 145 121 125 143 161 139
49 23 17 69 127 159 178 169 192 209 199 203 190 192 198 193 192 201 196 174 152 130 134 131 160 165 160 202 215 238 231 216 207 204 208 196 156 140 130 138 148 128 118
58 21 21 80 134 173 174 175 168 176 191 188 214 200 163 165 168 175 177 164 133 113 118 143 142 156 180 210 232 234 227 217 193 202 208 180 153 133 107 108 116 109 118
74 82 77 96 118 175 189 178 151 149 173 173 178 191 177 153 143 148 136 128 111 105 102 154 142 141 188 222 230 206 177 185 201 199 175 160 128 108 80 74 81 93 99
124 139 115 97 130 162 176 171 160 146 166 195 191 158 161 169 160 130 123 126 103 87 119 158 132 150 175 186 192 184 163 164 195 198 176 117 70 77 67 76 76 83 85
133 135 147 131 150 154 145 115 136 161 181 199 193 206 118 188 190 165 150 150 126 144 167 150 159 161 139 148 153 155 158 168 169 165 159 111 71 73 74 80 69 71 77
128 159 182 182 182 82 77 75 73 94 95 208 262 159 67 182 179 143 136 144 166 186 175 160 155 169 139 105 111 124 120 124 141 126 151 76 82 75 71 73 75 63 66
140 151 154 200 247 156 92 59 142 248 288 473 176 221 167 217 148 96 78 117 178 211 201 173 175 173 91 98 111 118 138 162 178 124 120 72 73 70 64 56 58 54 51
158 161 137 154 165 175 133 129 173 228 182 371 294 230 245 233 88 49 61 86 148 239 214 184 181 112 110 138 127 130 140 146 161 130 75 56 54 60 46 44 40 47 47
154 149 120 132 151 171 169 203 186 184 241 373 391 357 303 243 145 96 26 105 110 227 223 215 170 136 153 157 146 125 113 136 120 98 58 27 54 50 40 33 37 41 41
140 134 112 131 133 179 204 234 245 239 222 287 303 246 176 224 248 81 97 171 162 187 272 236 208 175 154 155 108 112 113 92 79 80 3 17 38 41 33 28 27 28 22
161 127 123 120 129 147 191 205 239 217 206 239 218 227 254 302 267 144 93 128 166 152 284 258 187 163 154 113 110 121 84 55 66 49 -15 13 39 26 27 24 19 23 21
166 144 118 124 132 163 173 159 160 157 176 191 235 239 262 277 291 253 102 137 113 163 246 225 219 171 126 123 114 103 70 71 49 36 20 21 27 20 22 20 21 25 23
162 142 145 112 134 162 169 154 131 113 142 169 173 165 222 198 210 138 122 105 85 133 203 241 250 204 174 96 102 109 85 90 57 41 45 27 19 14 19 23 24 20 16
140 171 149 149 138 162 175 164 84 72 105 143 132 139 176 195 224 166 160 113 86 105 188 259 277 247 183 103 87 107 109 119 64 42 57 54 24 17 13 24 22 14 7
208 182 169 170 157 179 204 149 84 65 86 53 106 105 127 267 161 128 156 112 81 101 189 215 254 247 182 108 108 97 116 115 76 76 78 64 44 23 17 22 11 10 6
181 204 173 166 179 170 173 114 64 62 79 88 120 344 207 237 103 118 133 152 111 143 125 139 213 238 203 168 119 98 125 102 85 83 69 58 41 22 21 13 18 17 10
176 175 176 151 178 158 178 113 52 41 80 79 80 118 152 109 129 167 147 193 180 191 241 220 183 275 226 185 135 106 99 100 92 71 50 61 50 27 21 25 26 28 22
223 188 164 159 181 182 179 120 62 42 60 77 77 100 127 146 117 164 147 169 182 165 185 167 240 272 249 191 216 187 134 126 91 60 65 54 39 23 30 37 45 53 37
235 181 174 152 172 194 196 120 70 34 45 54 97 114 163 170 200 169 197 164 156 139 147 188 272 273 219 156 176 223 172 128 74 65 51 45 32 58 49 44 60 73 84
265 208 179 158 173 183 258 198 110 119 114 94 123 179 173 204 229 187 166 203 160 218 151 153 201 191 207 141 164 201 275 166 114 73 42 55 45 74 69 75 93 101 108
273 208 186 163 153 188 262 187 97 48 70 115 177 176 177 177 200 220 131 157 200 203 168 128 133 157 136 149 200 191 190 177 179 157 52 66 88 90 90 105 112 131 138
276 225 213 148 133 170 196 179 82 42 46 152 198 123 136 268 228 223 124 163 153 167 111 151 115 138 154 146 212 252 297 235 195 145 139 92 137 124 109 125 140 138 149
250 230 203 181 135 133 143 153 120 66 60 107 127 145 -17 94 225 201 133 144 166 165 138 183 189 167 196 164 170 222 215 317 230 189 69 53 94 122 157 150 154 160 161

GFSSE_con_3kmhel_072.txt.gz
Helicity
59 66 79 88 87 97 149 163 187 243 271 273 272 236 236 226 211 197 144 136 124 113 117 131 146 146 140 131 133 124 116 111 114 95 91 103 93 100 99 100 97 75 87
109 79 77 89 108 123 161 180 170 197 259 283 270 244 224 222 225 215 188 171 159 153 141 141 157 146 127 125 126 134 118 141 112 100 102 104 103 108 99 95 102 86 89
102 73 70 83 105 137 168 199 179 187 238 274 268 253 235 233 228 223 210 202 184 171 155 152 149 145 146 162 181 173 165 176 149 137 143 122 105 115 107 98 106 101 106
86 55 53 75 130 181 185 185 184 162 187 236 247 252 242 224 215 207 210 208 180 154 155 156 149 133 153 193 214 194 191 201 185 169 162 150 133 134 140 109 150 152 145
54 25 36 87 134 191 226 211 194 165 152 172 226 228 225 242 222 224 212 195 167 141 114 143 161 171 205 227 198 216 218 209 184 192 197 204 172 151 154 138 128 123 102
51 28 54 84 141 180 224 228 199 184 154 179 203 215 229 247 250 221 205 170 141 120 109 129 177 226 225 210 202 212 218 210 204 198 203 178 181 144 127 101 101 99 134
61 66 70 85 132 179 194 211 188 154 154 164 195 222 242 205 202 226 193 157 140 126 135 165 191 235 216 181 189 193 199 195 207 208 181 170 150 101 74 82 102 103 117
88 72 95 100 157 184 172 151 154 147 133 134 199 229 234 252 103 141 154 142 119 154 202 222 211 210 201 178 165 157 172 166 172 170 173 138 96 76 71 75 88 86 95
82 85 124 122 142 150 128 75 77 67 69 105 135 155 165 176 218 84 55 79 151 192 198 213 220 204 173 154 137 124 136 150 171 164 165 98 81 89 73 70 73 77 83
124 100 130 128 114 132 75 90 129 178 158 149 161 260 167 198 118 79 68 124 180 184 185 227 194 150 143 129 126 116 135 151 166 154 126 83 75 80 73 76 71 71 65
146 152 146 150 132 98 81 102 142 178 165 210 248 334 286 152 112 158 22 90 182 172 212 230 178 132 128 117 125 127 141 140 149 135 110 78 67 78 75 68 61 54 42
142 160 156 159 134 105 93 137 191 211 223 253 297 285 305 184 127 65 188 38 126 156 219 192 176 152 145 135 128 125 137 142 154 115 82 67 53 67 48 50 44 35 30
171 176 142 163 138 134 139 155 254 271 235 216 246 326 346 259 177 153 150 107 131 177 197 234 211 171 153 149 135 128 151 148 142 97 62 38 52 48 32 30 34 37 28
203 153 158 151 147 155 163 155 213 266 246 212 230 267 332 275 186 202 292 202 145 181 214 245 231 182 165 157 124 121 124 99 99 77 33 21 38 32 26 22 13 22 10
212 164 137 158 159 169 174 163 220 257 245 229 263 292 314 274 184 187 199 194 169 246 218 219 208 191 181 128 123 81 85 79 91 83 32 22 26 24 14 11 8 5 10
217 150 147 133 161 174 149 172 189 216 218 215 249 264 226 192 223 152 193 182 188 236 219 197 196 199 196 132 114 69 74 83 84 66 39 23 32 15 5 8 8 3 4
169 184 164 143 138 137 142 181 182 164 151 185 211 191 190 190 200 189 277 269 214 233 205 213 215 236 192 143 131 76 100 90 82 66 65 62 16 16 8 10 2 4 3
208 180 152 149 147 133 139 172 166 109 94 107 133 155 166 162 177 207 252 168 236 221 209 215 227 218 186 167 102 112 104 99 84 77 75 78 54 39 19 17 11 0 0
206 203 140 165 169 143 156 144 138 102 84 94 73 89 116 155 194 244 230 164 221 207 192 207 247 206 210 158 144 124 110 103 88 87 75 68 61 46 41 20 22 8 5
232 192 157 177 177 161 147 152 147 93 71 82 57 83 100 183 270 281 208 157 212 195 158 193 199 241 209 171 162 165 131 108 100 96 84 72 60 44 42 45 35 30 18
230 229 167 189 170 185 149 134 135 105 75 80 72 82 180 239 349 194 154 144 214 195 165 208 199 221 268 235 266 234 177 88 108 98 101 87 71 44 41 45 48 51 39
251 208 174 165 174 186 158 93 108 91 58 60 76 84 93 124 182 215 150 127 168 212 159 216 271 290 298 214 251 279 187 142 100 78 90 88 73 61 41 42 54 56 55
230 240 173 170 179 184 175 162 132 101 68 71 82 101 119 106 124 171 151 137 135 182 211 270 216 257 357 203 196 227 270 206 165 141 80 110 85 72 53 56 63 64 72
224 212 173 175 173 197 205 180 121 57 46 51 89 106 125 172 144 172 178 146 145 162 156 142 210 241 324 275 252 255 191 116 187 198 137 120 103 82 54 61 76 88 96
228 196 175 175 165 192 175 188 152 79 51 42 73 90 126 181 208 203 188 174 125 173 186 160 218 190 244 253 300 251 226 211 156 218 254 185 126 95 98 125 121 109 109
185 150 185 158 134 149 158 170 160 134 94 75 75 109 92 127 191 186 213 214 204 209 203 194 208 180 147 160 188 229 247 233 224 248 231 343 124 83 148 173 156 139 133

GFSSE_con_3kmhel_075.txt.gz
Helicity
150 136 69 62 57 84 109 133 136 174 239 238 215 196 203 191 187 185 148 115 88 104 110 111 113 106 104 111 114 100 107 108 105 91 100 93 91 91 90 86 63 65 75
174 92 67 67 48 76 117 145 147 160 217 244 223 219 214 208 214 202 176 127 105 111 105 111 103 113 136 148 168 154 129 119 106 92 94 87 85 90 87 85 85 77 84
163 78 69 56 55 89 132 156 153 148 177 221 234 244 237 221 225 225 216 162 124 109 114 126 137 129 133 160 152 128 126 139 138 124 115 93 89 97 101 95 102 106 97
134 79 59 71 78 101 156 174 162 135 144 165 208 246 245 238 240 250 245 201 190 149 118 126 131 131 150 169 161 147 161 159 153 107 69 83 90 108 118 112 98 108 104
94 87 55 83 85 113 167 181 163 135 138 156 177 214 224 238 255 250 245 233 199 152 125 128 137 163 195 183 169 177 177 177 162 95 97 99 90 103 100 128 136 130 141
63 55 60 92 100 115 147 178 170 144 122 157 158 178 206 231 237 253 280 229 177 168 112 135 150 207 224 190 170 178 181 167 123 113 121 129 137 153 171 166 182 147 160
92 70 75 93 104 120 144 160 163 145 140 135 157 162 185 216 238 213 210 180 155 142 141 205 215 213 216 190 190 182 182 156 125 115 116 132 138 165 158 141 119 116 111
120 97 91 112 102 138 145 148 131 120 134 117 142 174 201 207 180 204 158 117 127 140 179 228 242 234 212 196 187 180 168 129 98 93 95 107 118 118 91 100 106 106 122
102 98 117 136 110 125 149 110 71 76 65 83 65 64 77 60 95 104 113 96 103 146 202 218 241 223 179 191 175 173 157 124 86 82 80 89 89 73 76 94 100 98 102
93 98 123 132 109 112 100 98 93 54 56 63 127 192 207 272 146 56 95 126 96 163 186 203 201 199 173 170 154 150 144 108 66 61 57 82 82 85 73 78 95 93 91
125 115 140 111 111 108 90 90 116 105 88 178 209 219 231 205 275 217 166 96 82 118 184 206 188 195 174 157 146 136 93 64 54 54 49 74 63 74 71 74 79 74 63
149 138 144 115 111 100 83 85 121 103 104 154 208 231 234 230 202 295 164 105 82 190 198 161 172 189 124 107 98 102 61 58 48 48 58 84 58 61 69 69 54 46 39
136 155 147 137 117 103 106 125 129 149 167 197 256 253 219 224 200 197 195 32 115 102 137 123 119 120 100 94 78 65 63 61 53 49 67 78 38 58 55 46 45 31 32
128 142 160 142 129 95 131 154 167 173 199 199 250 268 260 240 217 78 173 144 161 160 107 93 103 94 97 78 70 71 61 54 48 43 66 42 37 50 38 28 39 36 34
104 148 151 130 135 92 128 149 184 198 230 232 227 198 242 248 233 188 152 136 216 207 124 122 105 97 96 96 85 74 62 48 44 33 34 34 29 34 37 23 23 23 20
119 145 153 131 136 103 116 121 168 216 258 237 207 170 222 218 222 229 143 147 222 222 160 125 95 75 86 87 78 62 43 40 23 10 41 21 41 38 14 17 13 10 7
137 155 150 162 133 115 96 97 157 239 231 193 173 155 155 191 213 198 173 200 254 199 135 133 94 72 91 78 82 69 41 34 6 29 52 33 32 22 16 12 13 9 9
152 156 151 162 148 119 71 80 123 211 191 158 143 158 169 216 184 190 191 209 183 191 194 160 112 82 84 77 82 90 55 31 17 45 57 49 30 20 30 30 28 16 11
149 167 181 146 172 114 94 94 100 160 122 108 113 163 211 164 193 211 221 224 205 176 196 176 99 83 91 87 92 82 68 43 16 46 49 48 41 30 28 38 34 28 22
173 193 196 171 174 143 137 127 144 123 80 67 72 97 78 177 150 255 218 219 271 184 187 166 122 100 89 102 103 96 85 50 55 62 54 56 50 48 41 36 31 28 24
215 226 209 202 186 182 146 151 148 128 56 51 59 38 79 98 123 270 301 228 167 136 156 201 169 155 130 115 132 143 114 83 82 94 70 68 60 57 49 45 39 33 30
259 252 213 199 193 163 124 148 133 125 27 23 14 14 17 131 186 336 307 252 140 123 119 168 198 155 147 116 132 145 159 129 100 73 82 67 63 74 63 54 36 31 34
244 261 238 207 178 155 138 131 144 112 45 42 47 83 129 190 279 218 214 173 133 145 172 177 207 181 197 148 121 158 211 159 132 92 68 96 73 87 77 65 47 38 41
196 213 196 198 184 153 140 152 143 107 73 15 51 59 108 97 99 184 154 163 136 150 150 167 186 194 231 164 128 204 158 148 153 134 112 70 90 86 95 79 63 63 51
158 194 201 172 180 161 116 135 107 69 30 33 -3 40 65 120 75 79 128 160 120 112 152 172 183 187 163 204 195 173 163 180 146 165 175 143 112 36 91 127 93 72 68
119 168 192 193 170 158 115 103 101 86 79 73 51 24 56 80 104 114 126 164 156 184 148 171 165 177 194 177 176 177 212 206 169 181 170 158 150 115 125 140 91 108 95

GFSSE_con_3kmhel_078.txt.gz
Helicity
87 153 151 78 84 94 110 121 120 135 144 145 136 156 170 164 161 145 145 136 105 83 83 89 89 81 75 77 84 96 113 114 107 104 93 86 81 76 62 43 45 72 74
155 159 83 47 66 83 88 106 123 149 161 158 141 160 181 181 175 158 154 142 120 118 106 86 74 68 80 96 124 139 134 125 108 90 101 97 89 95 75 78 84 80 85
100 103 69 49 41 79 98 118 109 129 155 162 148 156 192 191 185 172 157 149 141 146 119 90 81 96 115 143 158 152 120 116 101 78 64 59 77 101 107 120 98 83 85
73 74 51 49 40 95 124 130 125 127 137 158 146 159 188 199 190 180 167 167 154 155 131 99 108 134 135 156 153 132 130 121 91 47 42 61 80 98 98 94 95 88 93
68 61 65 78 62 80 102 115 118 121 122 140 151 163 180 194 194 187 184 190 175 128 145 125 135 163 160 162 151 137 119 73 -3 -8 68 86 87 94 107 92 83 81 107
61 53 109 90 67 99 84 91 100 85 104 122 147 153 166 177 185 198 208 195 144 129 126 138 154 182 175 179 168 132 97 43 -38 92 94 105 84 98 134 157 177 191 170
68 60 84 94 81 83 100 92 106 80 96 110 134 156 166 172 189 176 213 181 146 123 147 169 192 182 186 182 164 135 90 6 5 89 92 107 132 146 163 173 173 175 174
100 85 94 104 105 95 98 106 109 91 83 85 90 127 145 138 163 192 149 153 128 101 127 180 180 185 197 170 165 153 99 82 62 64 78 102 115 124 146 158 160 131 120
115 114 112 109 98 99 81 99 88 95 79 66 25 59 58 38 48 80 90 77 77 116 171 190 169 174 188 170 167 161 119 70 81 68 61 65 100 130 123 107 107 110 109
122 118 120 127 115 87 88 80 98 74 79 70 57 76 89 111 182 129 109 77 45 116 172 182 161 170 189 174 167 150 117 88 63 52 61 98 61 72 96 92 109 107 96
107 118 128 136 112 89 76 90 77 63 81 131 135 181 188 150 251 133 114 93 115 106 134 171 186 202 188 167 147 115 43 57 60 64 96 90 82 55 77 80 97 96 94
84 110 108 129 107 104 82 78 63 71 72 92 110 141 145 166 183 126 184 174 286 207 101 157 196 187 104 99 95 61 44 68 52 67 87 71 67 50 64 71 71 71 79
59 97 93 98 95 86 106 96 62 65 89 98 104 142 165 173 156 183 215 218 276 148 187 118 123 81 67 81 72 46 76 44 67 65 96 84 54 61 61 61 55 54 56
53 94 112 113 104 100 111 106 78 77 87 112 109 137 180 189 177 198 212 212 299 214 218 117 65 80 74 62 55 64 59 58 56 67 78 59 51 61 53 34 39 39 47
41 77 130 121 116 102 119 103 98 96 131 134 117 120 156 181 152 168 162 111 203 185 120 95 71 96 60 82 61 51 48 65 63 70 58 53 42 41 21 22 35 43 38
50 91 124 112 103 100 95 97 100 117 137 160 168 143 106 169 195 180 206 150 158 141 124 73 94 67 51 73 69 65 53 50 43 56 53 37 23 18 38 27 33 31 28
57 85 128 118 103 85 86 90 102 125 165 175 161 133 149 145 183 224 239 207 153 159 138 97 70 50 58 74 69 61 58 43 53 57 46 43 26 41 36 28 28 22 19
62 83 114 134 117 82 106 98 99 115 156 174 145 116 140 124 169 175 178 185 204 243 207 103 83 46 50 71 81 77 68 47 54 50 65 28 42 63 57 46 37 29 23
66 100 123 141 120 105 117 113 106 93 130 141 107 88 75 61 106 191 178 179 237 245 238 143 68 56 55 72 70 79 75 67 60 65 63 17 52 44 47 66 49 38 31
58 87 139 181 152 136 120 131 109 99 105 119 76 79 91 136 140 164 194 224 209 243 205 141 75 63 60 61 67 85 81 80 69 70 44 41 60 80 72 50 43 43 47
53 104 167 213 172 186 143 139 118 130 125 83 33 30 46 79 230 175 164 258 212 233 140 123 54 58 76 69 90 112 107 99 80 76 46 38 48 70 68 71 60 43 55
67 112 190 204 183 159 136 123 136 172 119 34 15 25 20 35 72 300 251 234 233 235 178 132 56 74 83 73 110 95 148 126 85 62 69 56 86 86 70 60 54 66 71
65 136 183 194 176 142 100 114 153 201 113 46 23 6 -33 24 105 87 270 249 216 224 175 93 94 72 103 81 58 80 136 118 104 88 66 63 81 86 80 70 59 61 60
68 116 149 158 161 128 96 121 144 146 99 12 12 52 51 90 161 123 241 232 211 193 116 109 38 92 88 62 76 38 76 107 88 144 82 69 76 84 112 93 88 77 77
96 115 152 146 123 125 100 107 120 106 55 18 9 14 38 85 135 255 257 243 223 171 83 40 48 55 70 48 75 64 100 110 50 102 122 98 96 68 75 90 97 94 78
110 117 123 135 115 106 108 94 111 92 60 47 25 26 32 64 90 63 94 103 130 123 97 114 128 119 122 82 88 95 66 86 117 91 89 59 85 104 95 92 71 60 80

GFSSE_con_3kmhel_081.txt.gz
Helicity
99 122 149 154 129 106 99 90 109 109 103 97 107 114 116 117 108 113 125 132 130 115 97 89 78 67 72 83 90 102 113 135 150 153 135 102 75 61 46 25 42 75 68
94 108 119 121 122 118 99 98 103 118 116 106 113 112 126 121 113 119 123 115 105 112 103 107 92 75 71 74 92 105 124 133 137 116 93 86 83 83 71 62 105 79 83
85 87 81 101 102 92 93 102 113 127 118 114 122 117 125 124 125 126 115 107 101 106 116 107 93 87 81 95 110 120 124 111 94 46 24 55 86 101 112 124 105 93 84
63 71 76 92 95 70 65 77 101 120 112 125 123 118 109 131 134 111 125 115 101 110 99 100 91 113 117 131 126 122 91 69 29 -21 36 50 71 99 104 106 81 88 96
63 71 90 100 85 82 78 80 67 78 95 117 129 130 133 139 126 111 117 128 113 120 84 65 124 130 148 144 132 92 58 18 -13 42 84 67 72 90 91 86 87 78 85
59 64 149 128 88 90 81 79 89 73 82 101 118 130 140 142 109 98 105 118 117 107 75 91 122 128 155 136 109 67 16 -14 65 114 82 73 96 103 130 146 142 142 142
61 65 77 109 80 91 88 82 90 93 85 83 93 117 136 145 109 105 116 125 120 114 107 126 144 146 144 119 84 39 -27 28 68 68 80 87 111 105 126 145 168 190 189
69 63 73 96 73 87 99 101 101 82 99 78 76 88 106 98 74 100 101 79 72 85 99 139 149 154 137 117 76 13 8 26 30 78 61 91 124 129 140 149 162 170 156
81 71 82 89 83 73 84 99 108 99 86 71 51 69 19 64 83 63 55 71 65 89 119 147 163 157 141 111 83 34 42 67 10 45 91 63 99 105 119 140 140 130 119
87 85 79 76 93 74 70 93 105 106 94 81 67 83 103 134 85 180 174 84 114 108 59 143 154 160 140 133 107 69 72 103 36 68 75 97 98 95 105 109 115 112 112
77 74 86 81 98 75 77 80 87 88 92 105 103 100 133 118 164 207 239 120 96 29 38 114 156 162 152 143 113 74 54 42 71 52 130 85 95 94 105 102 107 117 115
68 57 86 86 104 85 71 96 52 65 80 84 91 101 122 135 146 190 242 114 44 92 148 132 142 151 123 103 89 71 26 47 27 67 111 84 77 69 69 92 113 109 116
45 39 73 82 107 94 69 88 60 68 71 84 76 96 123 165 152 163 218 72 91 142 154 255 147 68 70 82 85 57 68 97 32 112 73 70 60 58 68 78 91 95 96
20 33 53 73 94 85 88 79 50 74 109 85 90 95 144 169 199 163 142 120 145 216 235 258 144 50 56 62 57 66 76 43 60 105 37 61 63 57 56 60 76 70 73
8 38 79 88 100 127 128 89 76 41 89 97 79 94 123 162 209 242 187 167 169 220 246 274 157 84 71 75 78 119 93 66 84 94 26 92 78 64 49 45 61 44 51
9 57 96 122 104 142 115 107 110 102 120 92 102 93 84 134 174 166 152 199 204 190 197 163 109 149 103 74 71 94 64 102 68 85 57 73 63 42 52 50 55 41 32
19 67 121 124 94 102 87 100 105 135 150 130 127 117 98 116 108 132 106 158 149 165 176 161 84 99 91 72 67 102 97 65 41 52 54 68 68 56 69 63 32 42 38
53 96 154 121 101 100 88 139 119 126 135 154 145 162 90 100 120 191 171 166 159 190 124 100 89 83 106 88 133 83 81 59 66 77 51 50 62 63 70 52 48 47 39
68 111 150 125 95 101 133 148 124 131 133 141 192 157 96 110 109 146 145 209 236 187 149 153 118 86 93 163 123 79 85 72 62 50 81 71 46 58 57 42 53 66 57
76 101 139 112 109 118 162 129 134 174 144 149 154 127 65 75 101 114 194 248 208 159 143 163 135 90 110 151 53 119 130 104 59 64 57 60 48 27 35 68 70 70 64
87 112 121 122 136 162 153 134 143 147 133 127 129 108 95 65 63 90 201 251 188 131 188 241 129 96 86 131 203 193 153 163 125 66 58 56 72 42 30 49 33 60 74
80 106 133 122 136 169 136 120 153 143 114 111 113 86 39 38 43 89 277 266 250 164 209 191 228 105 124 184 213 164 191 141 110 83 75 66 68 46 36 57 54 75 81
47 95 122 126 139 153 141 137 158 150 132 121 104 74 28 16 22 60 187 263 230 187 168 123 132 133 148 136 125 130 159 115 86 85 73 60 82 60 51 55 61 73 89
43 71 98 129 140 125 143 140 133 146 121 100 91 35 16 24 49 126 168 325 282 203 202 130 104 79 97 117 86 62 58 64 57 116 76 80 83 59 59 62 63 61 88
72 89 114 124 119 101 95 127 87 87 96 112 109 62 47 89 92 122 150 306 244 229 227 205 133 46 61 104 117 100 103 79 79 69 70 104 80 68 68 88 90 99 78
77 101 98 120 137 86 91 110 84 117 106 142 133 99 77 84 93 133 153 274 198 254 181 121 99 49 48 96 107 111 111 91 101 100 106 66 89 64 78 96 96 84 113